Showing default

PNEO3, 48268

Orbit data source: Space-Track

PNEO3, 48268 is a payload satellite owned by ADS Intelligence (FR) in SSO that was launched on Thu, 29 Apr 2021 UTC via a VEGA launch vehicle from the French Guiana (FRGUI). Payload-class satellites include a variety of spacecraft equipped with specific instruments for various scientific and technological missions. These include communications satellites like Starlink; space stations such as the ISS; scientific satellites like the Hubble; Earth observation satellites from companies like Planet Labs, Umbra, and HawkEye 360; GPS; miniature CubeSats for education and research; and military/defense satellites.

Loading next visibility...
Identifier
48268, 2021-034A
Orbit
SSO
Country
Flag of FRFR
Related business
Manufacturer
Airbus/Toulouse
Mission
Operational Commercial Imaging
Bus & Motor
ASTROBUS-M COM., Unknown motor
Mass
920 kg wet, ~895 kg dry
Launch date (UTC)
2021-04-29 (5 years ago)
Launch vehicle
VEGA
Launch site
French Guiana (FRGUI)
Object type
Payload
Rocket body
Debris
Shape & HBR
Hex Cyl + 3 Pan, 4.6 m
Radar Cross Section
12.145 m², Large (>1 m²)

Expand to show TLE details & history
Last TLE update: 22 hours ago

TLE from 22 hours ago
0 PNEO3
1 48268U 21034A   26172.50769237  .00001535  00000-0  20169-3 0  9990
2 48268  97.8927 247.2126 0001403  91.9001 268.2372 14.81675289278293
Epoch: 2026-06-21T12:11Z
TLE epoch observation values (Epoch: 2026-06-21T12:11:04.620Z)
Latitude
-0.0001°
Longitude
154.7364°
Altitude
627.095 km
Speed
7.545 km/s
True Right ascension
16h 28m 51s
True Declination
0° 00' 00"
Sunlit
Object was in full shadow at epoch
Visualization orbit readout
Latitude
Unknown
Longitude
Unknown
Altitude
Unknown
Speed
Unknown
Apparent Right ascension
Unknown
Apparent Declination
Unknown
Sunlit
N/A
Visualization observer readout
Local Sidereal Time
21:42:36
Azimuth
Unknown
Elevation
Unknown
Doppler factor
Unknown
Orbital elements
Apogee altitude
622.061 km
Perigee altitude
620.097 km
Semi-major axis
6,999.216 km
Eccentricity
0.00014
Inclination
97.8927°
RAAN
247.2126°
Arg. of periapsis
91.9001°
True anomaly
268.22113°
Mean anomaly
268.2372°
Eccentric anomaly
268.22917°
Mean motion
3.70654 °/min
Orbital period
97.13 mins
BSTAR
0.00020169
Loading maneuver chart data...
Computing Atmospheric mass density...
Loading historical data...
Loading historical data...
Loading historical data...
Loading historical data...
Loading historical data...
Loading historical data...
Loading historical data...

Documentation

Showing up to 5 results
|